Weather in Khosrekh

Russia / Republic of Dagestan     41°59′33″N   47°16′25″E
temp.,
°C
wind,
m/s
gust,
m/s
humid.,
%
clouds,
%
prec.,
mm/h
press.,
hPa
HPBL,
m
13 april, tue
tue1300:00+2s33600 0.0 102039
03:00+1sse335960 0.0 102036
06:00+1sse236116 0.0 102050
09:00+7e35460 0.0 10171204
12:00+10e383853 0.1 10152507
15:00+8e455151 1.1 10151362
18:00+5e33683 1.4 1015362
21:00+2se237916 2.0 101897
14 april, wed
wed1400:00+2sse337754 0.1 101657
03:00+1s22684 0.1 101423
06:00+2s11639 0.0 101322
09:00+5ene356034 0.4 10121021
12:00+6e3554100 3.0 10101347
15:00+1nw2286100 10.0 1014403
18:00+1wsw227274 0.8 1014186
21:00−2sw337677 0.8 101855
15 april, thu
thu1500:00−3sw44721 0.0 101858
03:00−3sw55620 0.0 101867
06:00−3sw44530 0.0 101971
09:00+4wsw26445 0.0 10141264
12:00+6wsw374212 0.0 10131836
15:00+7w363927 0.1 10131994
18:00+3nw116511 0.1 101571
21:000sw2267100 0.2 101852
16 april, fri
fri1600:000sw226240 0.0 101726
03:00−1sw3262100 0.0 101822
06:000sw2156100 0.0 101723
09:00+5ne124399 0.0 1015855
12:00+8n153974 0.0 10131948
15:00+7n345437 0.8 10141156
18:00+5nw1168100 0.6 1015221
21:00+3sw3372100 0.6 101774
17 april, sat
sat1700:00+2sw3366100 0.0 101757
03:00+1sw336472 0.0 101734
06:00+2sw335969 0.0 101751
09:00+8nne124591 0.0 10151124
12:00+10nne244272 0.0 10131756
15:00+8ne2264100 0.9 1015796
18:00+4ne219199 0.3 1018380
21:00+4ese1284100 1.9 1018334